Location: Enborne
(51.3833°N, 1.3667°W)
Time: 14:30:39
(UTC+00:00)

Cosmos 1844 Rocket - Pass Details

Date: 17 January 2021
Orbit: 826 x 843 km, 71.0° (Epoch: 05 March)

Event Time Altitude Azimuth Distance (km) Brightness Sun altitude
Exits shadow 04:15:28 29° 130° (SE) 1,479 4.2 -34.6°
Drops below altitude 10° 04:18:10 10° 139° (SE) 2,432 5.4 -34.2°
Sets 04:20:36 0° 142° (SE) 3,360 6.2 -33.8°
